Weather History for Little Falls, MN

Change the Weather History Date:

Thursday, April 4, 2013

  Actual Average Record
Temperature  
Mean Temperature 34 °F -  
Max Temperature 41 °F 48 °F 73 °F (2005)
Min Temperature 28 °F 24 °F -4 °F (1975)
Degree Days  
Heating Degree Days 30    
Moisture  
Dew Point 24 °F    
Average Humidity 64    
Maximum Humidity 87    
Minimum Humidity 44    
Precipitation  
Precipitation 0.00 in - - ()
Sea Level Pressure  
Sea Level Pressure 30.07 in    
Wind  
Wind Speed 8 mph (WNW)    
Max Wind Speed 17 mph    
Max Gust Speed 23 mph    
Visibility 10 miles    
Events      
Averages and records for this station are not official NWS values.
T = Trace of Precipitation, MM = Missing Value Source: NWS Daily Summary

Daily Weather History Graph

Daily Weather History Graph

Search for Another Location

Airport:

Trip Planner

Search our weather history database for the weather conditions in past years. The results will help you decide how hot, cold, wet, or windy it might be!

Date:

Astronomy

Apr. 04, 2013 Rise Set
Actual Time 6:51 AM CDT 7:50 PM CDT
Civil Twilight 6:20 AM CDT 8:20 PM CDT
Nautical Twilight 5:44 AM CDT 8:57 PM CDT
Astronomical Twilight 5:06 AM CDT 9:35 PM CDT
Moon 3:36 AM CDT (4/4) 1:52 PM CDT (4/4)
Length of Visible Light 13h 59m
Length of Day
12h 59m
Waning Crescent, 33% of the Moon is Illuminated
Apr 4
Waning Crescent
Apr 10
New
Apr 18
First Quarter
Apr 25
Full
May 2
Last Quarter

Hourly Weather History & Observations

Time (CDT) Temp. Windchill Dew Point Humidity Pressure Visibility Wind Dir Wind Speed Gust Speed Precip Events Conditions
12:16 AM 39.2 °F 32.5 °F 30.2 °F 70% 29.97 in 10.0 mi SSW 10.4 mph 18.4 mph N/A   Clear
12:36 AM 39.2 °F 32.0 °F 30.2 °F 70% 29.94 in 10.0 mi South 11.5 mph 19.6 mph N/A   Clear
12:56 AM 39.2 °F 32.5 °F 30.2 °F 70% 29.94 in 10.0 mi SSW 10.4 mph 19.6 mph N/A   Scattered Clouds
1:16 AM 37.4 °F 30.8 °F 30.2 °F 75% 29.95 in 10.0 mi SSW 9.2 mph - N/A   Scattered Clouds
1:36 AM 39.2 °F 33.6 °F 30.2 °F 70% 29.96 in 10.0 mi SSW 8.1 mph - N/A   Clear
1:55 AM 39.2 °F 32.5 °F 30.2 °F 70% 29.95 in 10.0 mi SSW 10.4 mph - N/A   Clear
2:16 AM 37.4 °F 32.1 °F 30.2 °F 75% 29.95 in 10.0 mi SW 6.9 mph - N/A   Clear
2:36 AM 37.4 °F 34.9 °F 32.0 °F 81% 29.96 in 10.0 mi SW 3.5 mph - N/A   Clear
2:56 AM 37.4 °F 34.9 °F 30.2 °F 75% 29.95 in 10.0 mi SSW 3.5 mph - N/A   Clear
3:16 AM 35.6 °F 32.8 °F 32.0 °F 87% 29.96 in 10.0 mi West 3.5 mph - N/A   Clear
3:35 AM 37.4 °F 32.1 °F 32.0 °F 81% 29.97 in 10.0 mi West 6.9 mph - N/A   Clear
3:56 AM 35.6 °F 30.7 °F 32.0 °F 87% 29.97 in 10.0 mi WNW 5.8 mph - N/A   Clear
4:16 AM 35.6 °F 29.9 °F 32.0 °F 87% 29.97 in 10.0 mi WNW 6.9 mph - N/A   Clear
4:35 AM 35.6 °F 29.9 °F 30.2 °F 81% 29.98 in 10.0 mi WNW 6.9 mph - N/A   Clear
4:56 AM 33.8 °F 29.6 °F 30.2 °F 87% 29.99 in 10.0 mi NW 4.6 mph - N/A   Clear
5:16 AM 33.8 °F 29.6 °F 30.2 °F 87% 29.99 in 10.0 mi WNW 4.6 mph - N/A   Clear
5:35 AM 33.8 °F 29.6 °F 30.2 °F 87% 29.99 in 10.0 mi WNW 4.6 mph - N/A   Clear
5:56 AM 33.8 °F 30.8 °F 28.4 °F 81% 30.01 in 10.0 mi WNW 3.5 mph - N/A   Clear
6:16 AM 33.8 °F 30.8 °F 28.4 °F 81% 30.01 in 10.0 mi NW 3.5 mph - N/A   Clear
6:35 AM 32.0 °F 28.7 °F 28.4 °F 87% 30.01 in 10.0 mi WNW 3.5 mph - N/A   Clear
6:56 AM 32.0 °F 28.7 °F 26.6 °F 80% 30.02 in 10.0 mi WNW 3.5 mph - N/A   Clear
7:16 AM 32.0 °F 26.4 °F 26.6 °F 80% 30.04 in 10.0 mi WNW 5.8 mph - N/A   Clear
7:35 AM 32.0 °F 26.4 °F 26.6 °F 80% 30.05 in 10.0 mi WNW 5.8 mph - N/A   Clear
7:56 AM 32.0 °F 26.4 °F 26.6 °F 80% 30.05 in 10.0 mi WNW 5.8 mph - N/A   Clear
8:16 AM 32.0 °F 23.6 °F 26.6 °F 80% 30.06 in 10.0 mi NW 10.4 mph 16.1 mph N/A   Clear
8:36 AM 32.0 °F 25.6 °F 26.6 °F 80% 30.06 in 10.0 mi NW 6.9 mph - N/A   Clear
8:56 AM 33.8 °F 27.7 °F 26.6 °F 75% 30.07 in 10.0 mi NW 6.9 mph - N/A   Clear
9:16 AM 33.8 °F 27.7 °F 26.6 °F 75% 30.07 in 10.0 mi NNW 6.9 mph - N/A   Clear
9:36 AM 33.8 °F 27.7 °F 26.6 °F 75% 30.07 in 10.0 mi NNW 6.9 mph - N/A   Clear
9:56 AM 35.6 °F 31.7 °F 24.8 °F 65% 30.08 in 10.0 mi NW 4.6 mph - N/A   Clear
10:16 AM 35.6 °F 31.7 °F 24.8 °F 65% 30.08 in 10.0 mi NW 4.6 mph - N/A   Clear
10:36 AM 35.6 °F 29.9 °F 24.8 °F 65% 30.09 in 10.0 mi WNW 6.9 mph - N/A   Clear
10:56 AM 37.4 °F 30.8 °F 26.6 °F 65% 30.09 in 10.0 mi WNW 9.2 mph - N/A   Clear
11:36 AM 37.4 °F 29.8 °F 24.8 °F 60% 30.10 in 10.0 mi WNW 11.5 mph - N/A   Clear
11:56 AM 39.2 °F 32.5 °F 24.8 °F 56% 30.10 in 10.0 mi WNW 10.4 mph - N/A   Clear
12:15 PM 39.2 °F 31.6 °F 23.0 °F 52% 30.10 in 10.0 mi WNW 12.7 mph 16.1 mph N/A   Clear
12:36 PM 39.2 °F 33.0 °F 23.0 °F 52% 30.10 in 10.0 mi WNW 9.2 mph - N/A   Clear
12:56 PM 39.2 °F 33.6 °F 23.0 °F 52% 30.11 in 10.0 mi NW 8.1 mph - N/A   Clear
1:15 PM 41.0 °F 34.7 °F 21.2 °F 45% 30.11 in 10.0 mi NW 10.4 mph 20.7 mph N/A   Clear
1:36 PM 41.0 °F 33.5 °F 21.2 °F 45% 30.11 in 10.0 mi WNW 13.8 mph 23.0 mph N/A   Clear
1:55 PM 39.2 °F 31.6 °F 23.0 °F 52% 30.11 in 10.0 mi WNW 12.7 mph 20.7 mph N/A   Clear
2:16 PM 39.2 °F 30.8 °F 23.0 °F 52% 30.11 in 10.0 mi West 15.0 mph - N/A   Clear
2:36 PM 39.2 °F 30.2 °F 21.2 °F 49% 30.11 in 10.0 mi West 17.3 mph 21.9 mph N/A   Clear
2:55 PM 39.2 °F 31.6 °F 21.2 °F 49% 30.11 in 10.0 mi WNW 12.7 mph 20.7 mph N/A   Clear
3:16 PM 39.2 °F 31.6 °F 21.2 °F 49% 30.11 in 10.0 mi WNW 12.7 mph - N/A   Clear
3:36 PM 39.2 °F 30.8 °F 21.2 °F 49% 30.11 in 10.0 mi WNW 15.0 mph 19.6 mph N/A   Clear
3:55 PM 39.2 °F 31.2 °F 19.4 °F 45% 30.11 in 10.0 mi WNW 13.8 mph 19.6 mph N/A   Clear
4:16 PM 39.2 °F 30.8 °F 21.2 °F 49% 30.11 in 10.0 mi West 15.0 mph 19.6 mph N/A   Clear
4:36 PM 39.2 °F 31.6 °F 21.2 °F 49% 30.11 in 10.0 mi WNW 12.7 mph 16.1 mph N/A   Clear
4:56 PM 39.2 °F 30.5 °F 21.2 °F 49% 30.11 in 10.0 mi West 16.1 mph - N/A   Clear
5:16 PM 39.2 °F 32.5 °F 21.2 °F 49% 30.11 in 10.0 mi WNW 10.4 mph 17.3 mph N/A   Clear
5:36 PM 39.2 °F 31.2 °F 19.4 °F 45% 30.11 in 10.0 mi West 13.8 mph - N/A   Clear
5:56 PM 37.4 °F 31.4 °F 19.4 °F 48% 30.11 in 10.0 mi WNW 8.1 mph - N/A   Clear
6:15 PM 37.4 °F 28.9 °F 19.4 °F 48% 30.12 in 10.0 mi West 13.8 mph - N/A   Clear
6:36 PM 37.4 °F 30.8 °F 21.2 °F 52% 30.13 in 10.0 mi WNW 9.2 mph - N/A   Clear
6:55 PM 37.4 °F 30.8 °F 21.2 °F 52% 30.13 in 10.0 mi WNW 9.2 mph - N/A   Clear
7:16 PM 37.4 °F 32.1 °F 19.4 °F 48% 30.13 in 10.0 mi NW 6.9 mph - N/A   Clear
7:36 PM 35.6 °F 30.7 °F 15.8 °F 44% 30.13 in 10.0 mi NNW 5.8 mph - N/A   Clear
7:55 PM 35.6 °F 30.7 °F 17.6 °F 48% 30.14 in 10.0 mi NW 5.8 mph - N/A   Clear
8:16 PM 33.8 °F 29.6 °F 17.6 °F 52% 30.14 in 10.0 mi NNW 4.6 mph - N/A   Clear
8:36 PM 33.8 °F 30.8 °F 17.6 °F 52% 30.14 in 10.0 mi NW 3.5 mph - N/A   Clear
8:55 PM 32.0 °F 27.5 °F 17.6 °F 55% 30.16 in 10.0 mi NW 4.6 mph - N/A   Clear
9:16 PM 32.0 °F - 17.6 °F 55% 30.16 in 10.0 mi Calm Calm - N/A   Clear
9:36 PM 32.0 °F 27.5 °F 17.6 °F 55% 30.16 in 10.0 mi NW 4.6 mph - N/A   Clear
9:55 PM 32.0 °F 28.7 °F 17.6 °F 55% 30.17 in 10.0 mi NW 3.5 mph - N/A   Clear
10:16 PM 32.0 °F 28.7 °F 17.6 °F 55% 30.18 in 10.0 mi NW 3.5 mph - N/A   Clear
10:36 PM 30.2 °F 26.7 °F 17.6 °F 60% 30.18 in 10.0 mi NW 3.5 mph - N/A   Clear
10:55 PM 30.2 °F 25.4 °F 17.6 °F 60% 30.18 in 10.0 mi NW 4.6 mph - N/A   Clear
11:16 PM 30.2 °F 26.7 °F 17.6 °F 60% 30.19 in 10.0 mi NW 3.5 mph - N/A   Clear
11:36 PM 28.4 °F - 17.6 °F 64% 30.19 in 10.0 mi Calm Calm - N/A   Clear
11:55 PM 28.4 °F - 17.6 °F 64% 30.19 in 10.0 mi Calm Calm - N/A   Clear